Preview of NWS' New Version of Forecast
This preview is not operational and should not be used for support decisions.

Regional Weather Roundup (RWR)

Issued by Gray - Portland, ME (GYX)

                            
000
ASUS41 KGYX 211210
RWRGYX
WEATHER ROUNDUP FOR MAINE AND NEW HAMPSHIRE
NATIONAL WEATHER SERVICE GRAY ME
800 AM EDT SUN APR 21 2019

MEZ002-005-006-010-012-015-018-020-021-024-026-027-029-211300-
MAINE
  
CITY           SKY/WX    TMP DP  RH WIND       PRES   REMARKS
PORTLAND       FOG       50  48  93 S5        30.01S VSB 1/4          
6HR MIN TEMP:  49; 6HR MAX TEMP:  54; 6HR PCP:  0.01;                

SANFORD        CLOUDY    55  55 100 MISG      30.02R FOG              
BAR HARBOR     LGT RAIN  51  51 100 S14       30.08R FOG              
WISCASSET      FOG       50  49  96 CALM      30.05R VSB 1/4          
6HR MIN TEMP:  49; 6HR MAX TEMP:  54; 6HR PCP:  0.02;                

ROCKLAND       LGT RAIN  48  48 100 S9        30.05R VSB 1/4          
FRYEBURG       CLOUDY    56  56 100 CALM      30.01R                  
6HR MIN TEMP:  52; 6HR MAX TEMP:  61; 6HR PCP:  0.15;                

LEWISTONAUBURN FOG       52  52 100 VRB6      30.01F VSB 3/4          
AUGUSTA        FOG       53  53 100 S9        30.02R VSB 1/4          
6HR MIN TEMP:  53; 6HR MAX TEMP:  56; 6HR PCP:  0.03;                

WATERVILLE     CLOUDY    56  56 100 VRB5      30.00R FOG              
BANGOR         FOG       53  53 100 S10       30.02F VSB 1/4          
6HR MIN TEMP:  52; 6HR MAX TEMP:  54; 6HR PCP: TRACE;                

GREENVILLE       N/A     48  47  96 SE7       29.96F                  
6HR MIN TEMP:  43; 6HR MAX TEMP:  48; 6HR PCP:  0.05;                

MILLINOCKET    FOG       42  40  92 CALM      30.02S VSB 1/4          
6HR MIN TEMP:  40; 6HR MAX TEMP:  42;                                

HOULTON        FOG       46  45  96 SW6       30.02S VSB 1            
6HR MIN TEMP:  39; 6HR MAX TEMP:  48;                                

PRESQUE ISLE   CLOUDY    44  43  96 SE9       30.00F                  
6HR MIN TEMP:  40; 6HR MAX TEMP:  44; 6HR PCP:  0.01;                

FRENCHVILLE    FOG       43  40  89 SE9       29.98F VSB<1/4          
6HR MIN TEMP:  39; 6HR MAX TEMP:  43; 6HR PCP:  0.01;                

CARIBOU        LGT RAIN  45  43  93 S8        29.99S VSB 1            
6HR MIN TEMP:  38; 6HR MAX TEMP:  45; 6HR PCP:  0.04;                

$$

NHZ002-005-008-009-011-012-014-211300-
NEW HAMPSHIRE
  
CITY           SKY/WX    TMP DP  RH WIND       PRES   REMARKS
PORTSMOUTH     CLOUDY    56  56 100 E3        30.01R FOG              
ROCHESTER      CLOUDY    57  57 100 S3        30.02R FOG              
6HR MIN TEMP:  56; 6HR MAX TEMP:  59; 6HR PCP:  0.07;                

NASHUA         CLOUDY    58  58 100 CALM      30.02R                  
MANCHESTER     CLOUDY    59  56  89 S5        30.00R                  
6HR MIN TEMP:  59; 6HR MAX TEMP:  60; 6HR PCP:  0.07;                

CONCORD        CLOUDY    58  56  93 SE5       30.00R                  
6HR MIN TEMP:  57; 6HR MAX TEMP:  60; 6HR PCP:  0.03;                

LACONIA        FOG       54  54 100 E5        30.01R VSB 1            
PLYMOUTH       CLOUDY    52  51  96 CALM      30.01R FOG              
BERLIN         FAIR      55  54  96 CALM      29.96R                  
6HR MIN TEMP:  51; 6HR MAX TEMP:  63; 6HR PCP:  0.04;                

WHITEFIELD     PTSUNNY   56  52  86 CALM      29.97R                  
6HR MIN TEMP:  52; 6HR MAX TEMP:  65; 6HR PCP:  0.02;                

JAFFREY        CLOUDY    55  52  89 S3        30.01R                  
6HR MIN TEMP:  53; 6HR MAX TEMP:  57; 6HR PCP: TRACE;                

KEENE          CLOUDY    54  54 100 CALM      30.02R                  
LEBANON        PTSUNNY   56  51  84 CALM      29.98R                  
6HR MIN TEMP:  50; 6HR MAX TEMP:  60; 6HR PCP:  0.02;                

MT WASHINGTON  NOT AVBL                                               
$$

VTZ005-007-008-211300-
VERMONT
  
CITY           SKY/WX    TMP DP  RH WIND       PRES   REMARKS
ST JOHNSBURY     N/A     53  52  96 MISG      29.96R                  
MONTPELIER     PTSUNNY   56  50  80 S6        30.00R                  
BURLINGTON     PTSUNNY   59  49  69 S12       29.93R                  
$$

MAZ007-012-024-CTZ003-RIZ002-NYZ038-NYZ072-211300-
SOUTHERN NEW ENGLAND AND NY
  
CITY           SKY/WX    TMP DP  RH WIND       PRES   REMARKS
BOSTON         LGT RAIN  60  56  86 SW6       30.02R                  
WORCESTER      LGT RAIN  54  52  93 S10       30.02R                  
NANTUCKET      LGT RAIN  52  52 100 SE18      30.01R FOG              
PROVIDENCE     CLOUDY    55  54  96 SE8       30.01R                  
HARTFORD       CLOUDY    57  55  93 S3        30.00R                  
ALBANY         PTSUNNY   57  50  77 S6        29.95R                  
NEW YORK CITY  PTSUNNY   54  50  86 SE9       29.94S                  
$$

ANZ081-ANZ082-ANZ150-NHZ014-MEZ023>029-211300-
COASTAL MARINE OBSERVATIONS
  
STATION/POSITION TIME  TEMP    WIND        PRES    WAVE
                       AIR SEA DIR/SP/G            HT/PER
                 (UTC) (F)     (DEG/KT/KT) (MB)    (FT/S)
ISLE OF SHOALS   1100   55     170/ 20/ 21 1015.4R
$$

.............KEY..............
   WCI - WIND CHILL
   TC  - TEMPERATURE IN CELSIUS
   VSB - VISIBILITY IN MILES
   HX  - HEAT INDEX
   FAIR- INDICATES FEW OR NO CLOUDS BELOW 12,000 FT, WITH NO 
         SIGNIFICANT WEATHER AND/OR OBSTRUCTIONS TO VISIBILITY.